This is the latest recevied weather packets stored in our database for station/object LX0APE-4. If no packets are shown the sender has not sent any weather packets the latest 10 day(s).
| Time | Temp. | Humidity | Pressure | Rain* | Wind** | Luminosity | Snow |
|---|---|---|---|---|---|---|---|
| 1777973212 | 19.44° C | 59% | 5005.6 hPa | 0 mm | - | - | - |
| 1777972912 | 20° C | 59% | 5005.7 hPa | 0 mm | - | - | - |
| 1777972613 | 19.44° C | 59% | 5005.8 hPa | 0 mm | - | - | - |
| 1777972313 | 19.44° C | 59% | 5005.8 hPa | 0 mm | - | - | - |
| 1777972013 | 19.44° C | 59% | 5005.8 hPa | 0 mm | - | - | - |
| 1777971713 | 19.44° C | 59% | 5005.8 hPa | 0 mm | - | - | - |
| 1777971413 | 19.44° C | 60% | 5005.9 hPa | 0 mm | - | - | - |
| 1777971113 | 19.44° C | 60% | 5005.9 hPa | 0 mm | - | - | - |
| 1777970813 | 19.44° C | 61% | 5005.9 hPa | 0 mm | - | - | - |
| 1777970513 | 18.89° C | 62% | 5005.9 hPa | 0 mm | - | - | - |
| 1777970213 | 18.89° C | 63% | 5005.9 hPa | 0 mm | - | - | - |
| 1777969913 | 18.89° C | 63% | 5005.9 hPa | 0 mm | - | - | - |
| 1777969613 | 18.89° C | 64% | 5005.9 hPa | 0 mm | - | - | - |
| 1777969313 | 18.33° C | 64% | 5005.9 hPa | 0 mm | - | - | - |
| 1777969013 | 18.33° C | 64% | 5006 hPa | 0 mm | - | - | - |
| 1777968713 | 18.89° C | 64% | 5006.2 hPa | 0 mm | - | - | - |
| 1777968413 | 18.33° C | 65% | 5005.9 hPa | 0 mm | - | - | - |
| 1777968113 | 18.33° C | 65% | 5005.9 hPa | 0 mm | - | - | - |
| 1777967813 | 18.33° C | 66% | 5006 hPa | 0 mm | - | - | - |
| 1777967513 | 18.33° C | 66% | 5006.1 hPa | 0 mm | - | - | - |
| 1777967213 | 17.78° C | 67% | 5006.2 hPa | 0 mm | - | - | - |
| 1777966913 | 17.78° C | 68% | 5006.1 hPa | 0 mm | - | - | - |
| 1777966613 | 17.22° C | 69% | 5006.2 hPa | 0 mm | - | - | - |
| 1777966313 | 17.22° C | 69% | 5006.3 hPa | 0 mm | - | - | - |
| 1777966013 | 17.22° C | 70% | 5006.3 hPa | 0 mm | - | - | - |
* Rain latest hour (hover to see other rain measurements)
** Current wind speed in m/s (hover to see current wind gust speed)